Overview Statistics Trail Chart Weather Telemetry Raw packets
 

This is the latest recevied weather packets stored in our database for station/object KC2GYU. If no packets are shown the sender has not sent any weather packets the latest 10 day(s).

<< 50 51 52 53 54 55 56 >>
Time Temp. Humidity Pressure Rain* Wind** Luminosity Snow
1777736060 13.89° C 71% 1012.9 hPa 0 mm - 314 W/m² -
1777736031 13.89° C 74% 1012.9 hPa 0 mm - 325 W/m² -
1777735990 13.89° C 73% 1012.9 hPa 0 mm - 321 W/m² -
1777735954 13.89° C 73% 1012.9 hPa 0 mm - 321 W/m² -
1777735886 13.89° C 72% 1012.8 hPa 0 mm - 309 W/m² -
1777735584 13.89° C 74% 1013.1 hPa 0 mm - 232 W/m² -
1777735281 13.89° C 74% 1013 hPa 0 mm - 202 W/m² -
1777734978 13.89° C 75% 1013.1 hPa 0 mm - 187 W/m² -
1777734676 13.33° C 75% 1013 hPa 0 mm - 181 W/m² -
1777734373 13.33° C 74% 1012.9 hPa 0 mm - 167 W/m² -
1777734069 13.33° C 75% 1012.9 hPa 0 mm - 141 W/m² -
1777733766 13.33° C 76% 1012.7 hPa 0 mm - 111 W/m² -
1777733463 13.33° C 75% 1012.9 hPa 0 mm - 101 W/m² -
1777733158 13.89° C 74% 1012.6 hPa 0 mm - 118 W/m² -
1777732855 13.89° C 74% 1012.7 hPa 0 mm - 137 W/m² -
1777732551 13.89° C 74% 1012.8 hPa 0 mm - 157 W/m² -
1777732250 13.89° C 74% 1012.7 hPa 0 mm - 182 W/m² -
1777731947 13.89° C 74% 1012.6 hPa 0 mm - 210 W/m² -
1777731643 13.89° C 75% 1012.7 hPa 0 mm - 216 W/m² -
1777731341 13.89° C 75% 1012.8 hPa 0 mm - 210 W/m² -
1777731038 13.89° C 76% 1013 hPa 0 mm - 177 W/m² -
1777730737 13.89° C 75% 1013.1 hPa 0 mm - 204 W/m² -
1777730433 13.89° C 75% 1013.1 hPa 0 mm - 221 W/m² -
1777730128 13.89° C 76% 1012.9 hPa 0 mm - 257 W/m² -
1777729825 13.33° C 76% 1013.2 hPa 0 mm - 237 W/m² -

* Rain latest hour (hover to see other rain measurements)
** Current wind speed in m/s (hover to see current wind gust speed)